Weather in Sudzhenka

Russia / Kemerovo Oblast     56°10′56″N   86°15′09″E
В апреле 2022 года жителям России запретили посещать сайт meteo.paraplan.net по решению Генеральной прокуратуры. Аудитория сайта уменьшилась в 10 раз. Владельцы сайта не видят смысла в поддержке погодного сервера в таких условиях. Сайт будет закрыт в октябре.
temp.,
°C
wind,
m/s
gust,
m/s
humid.,
%
clouds,
%
prec.,
mm/h
press.,
hPa
HPBL,
m
4 october, tue
tue401:00−1ene22835 0.0 103611
04:00−2ne228512 0.0 103513
07:00−3ene228758 0.0 103516
10:00+2e2362100 0.0 1035239
13:00+6ene1145100 0.0 1033567
16:00+7w114271 0.0 1032694
19:00+3wsw1156100 0.0 103210
22:00+2sw3565100 0.0 103195
5 october, wed
wed501:00+1sw387683 0.0 1030148
04:00+2sw41074100 0.0 1029366
07:00+1sw51297100 0.3 1028458
10:00+3sw61292100 0.3 1027615
13:00+3wsw61290100 0.8 1025720
16:00+3wnw5997100 0.7 1026763
19:00+4wnw3788100 0.8 1027273
22:00+4wnw367599 0.1 1029183
6 october, thu
thu601:00+1w3683100 0.1 1029120
04:00+2w3688100 0.0 1029166
07:00+2wnw3691100 0.0 1030362
10:00+3nw4689100 0.1 1030592
13:00+5nw4569100 0.4 10301033
16:00+5nw3465100 0.3 1030963
19:00+3wnw227797 0.3 103226
22:00+3wsw228097 0.0 103326
7 october, fri
fri701:00+1ssw228772 0.0 103311
04:00+1ssw2285100 0.0 103353
07:00+2s2285100 0.0 103244
10:00+4s3473100 0.0 1032278
13:00+8ssw4454100 0.0 10311048
16:00+8ssw4559100 0.0 10301052
19:00+5sse488191 0.0 1030207
22:00+3s3987100 0.0 1029271
8 october, sat
sat801:00+3s41084100 0.0 1028268
04:00+3s41086100 0.0 1026238
07:00+3s31087100 0.0 1025232
10:00+6s41068100 0.0 1023332
13:00+9s5850100 0.0 1021482
16:00+10s5955100 0.0 1018526
19:00+7s51173100 0.0 1016349
22:00+8s51474100 0.0 1014405